Wind_Speed
9 7 5 7 6 5 7 7 2 5 5 2 3 3 2 5 1 4 8 13 26 27 25 23 22 22 22 25 26 28 27 26 26 25 26 28 28 28 27 26 25 26 27 25 23 23 22 22 22
6 4 6 2 7 10 7 5 12 6 6 4 5 4 5 5 5 9 15 19 27 27 26 24 24 23 23 25 27 27 26 26 26 27 29 29 28 26 24 24 25 26 25 24 23 23 22 22 23
3 4 6 5 10 12 8 10 9 6 2 4 4 2 2 4 4 11 10 26 28 26 26 24 26 25 25 25 26 26 26 27 28 30 29 27 25 26 24 25 25 24 23 23 23 22 22 22 23
5 6 3 9 14 11 11 7 6 8 4 2 1 5 5 4 4 6 23 29 27 26 25 25 27 26 25 25 26 26 27 29 30 30 28 26 24 25 25 25 25 23 22 22 22 22 22 23 23
6 3 8 13 17 13 9 5 5 6 2 3 3 5 4 4 7 18 26 28 27 25 24 26 27 26 25 24 25 27 28 29 28 29 28 26 23 25 25 24 22 22 23 22 22 23 23 23 24
6 4 8 13 15 11 12 8 8 6 5 7 7 4 4 2 12 24 27 27 25 26 26 26 26 25 24 24 24 27 28 28 26 26 27 25 23 24 24 21 19 22 23 22 23 23 23 24 25
11 8 13 13 10 10 14 6 12 12 10 12 5 7 4 4 14 24 26 25 23 25 27 27 25 24 24 23 25 27 27 26 26 25 27 24 23 23 21 20 18 23 23 23 22 23 24 23 25
7 6 8 11 11 15 6 7 0 10 11 2 3 6 6 13 19 23 22 24 23 25 26 26 26 24 22 21 26 27 26 25 25 25 27 25 20 20 19 18 20 23 23 24 23 23 23 24 26
3 7 11 15 12 7 4 8 5 1 5 4 2 3 5 22 24 22 22 22 23 24 26 26 26 25 23 22 24 26 25 24 25 26 27 21 18 20 17 17 22 23 22 22 22 22 24 26 27
10 10 14 4 6 4 6 6 5 7 8 7 7 8 14 22 24 24 24 26 26 25 25 26 26 26 24 23 24 22 21 20 20 22 22 16 19 17 18 19 22 22 22 20 21 24 23 19 17
8 13 8 5 4 5 6 6 3 7 9 5 3 9 13 19 18 20 21 23 23 26 25 25 26 27 26 25 26 24 22 22 21 21 18 17 18 19 20 23 21 20 18 16 20 15 13 13 13
9 11 6 1 6 6 9 2 8 8 6 5 4 6 12 14 17 19 19 22 25 26 26 27 26 25 25 25 24 23 21 25 22 21 18 23 19 19 22 19 18 16 12 15 13 14 15 15 15
13 9 6 9 6 8 4 12 10 10 9 8 7 7 11 13 18 19 21 18 23 25 25 26 25 27 25 26 24 22 22 21 21 21 19 24 20 21 23 18 16 13 15 15 15 17 16 16 16
2 8 11 7 10 8 12 13 6 9 11 14 11 10 12 13 16 20 20 21 22 25 25 25 25 26 25 24 25 22 22 20 21 20 23 22 21 22 21 19 15 16 15 16 16 16 16 15 15
6 11 12 12 12 12 8 18 18 16 13 10 14 13 12 13 16 19 25 25 27 25 25 27 28 27 28 23 24 22 21 21 21 19 25 23 22 21 20 19 17 17 16 17 18 16 15 15 14
9 7 14 6 13 8 9 14 6 3 14 15 13 10 10 11 16 19 20 24 27 26 28 26 27 28 31 23 25 23 21 21 20 19 23 23 23 22 20 19 19 18 18 17 17 17 16 15 15
14 16 13 12 9 6 17 12 15 6 5 8 10 10 8 7 11 17 19 23 30 31 30 31 28 31 30 24 23 23 21 21 19 19 22 24 25 24 22 20 20 20 19 18 17 16 17 17 15
16 18 17 14 10 12 15 17 8 10 6 6 6 7 8 7 7 11 17 22 28 31 32 32 32 32 32 26 22 20 21 22 19 20 22 24 25 28 23 22 22 21 20 19 18 18 17 16 16
19 13 13 7 7 6 14 15 15 11 13 13 11 9 10 11 10 8 13 22 27 29 32 33 34 35 33 31 26 21 21 22 21 22 23 26 24 30 25 25 25 23 21 20 20 19 20 18 17
19 21 21 14 11 7 14 18 17 17 16 15 13 13 12 12 13 11 12 19 25 29 32 35 34 36 37 32 26 21 19 22 22 20 25 25 26 31 28 29 30 24 27 21 24 23 20 19 20
20 20 18 19 11 14 14 21 22 19 19 18 18 16 15 15 14 13 13 17 23 27 32 35 35 39 39 37 33 21 16 19 22 24 23 25 30 31 33 30 29 29 26 27 32 30 22 21 21
21 19 19 19 15 16 16 11 13 17 11 10 9 11 13 15 14 12 14 18 21 28 32 34 35 35 36 36 36 31 28 26 27 25 26 27 34 30 33 33 31 36 34 29 35 34 25 16 22
16 18 14 19 19 17 18 8 15 15 10 11 9 10 10 10 11 12 13 17 20 24 30 33 36 37 37 39 36 36 31 25 26 26 26 26 34 37 33 36 31 37 38 31 36 36 30 21 19
16 12 15 17 16 18 23 17 11 13 13 9 6 5 2 2 3 5 8 12 17 21 26 30 33 36 38 40 38 36 31 27 26 29 30 30 32 38 40 38 38 38 39 38 35 38 39 24 21
14 14 10 12 10 11 20 16 16 5 8 5 2 2 3 4 3 4 5 6 13 19 22 27 31 31 40 41 41 44 47 43 38 32 33 31 31 36 40 43 41 39 40 40 30 39 39 34 23
9 19 12 18 15 13 15 13 10 14 9 8 4 5 5 7 8 9 9 9 8 14 21 24 31 34 38 41 41 46 48 43 43 37 32 33 34 34 38 46 45 41 39 30 31 38 39 32 26
9 13 23 9 14 11 18 9 11 10 8 5 6 7 10 11 12 13 14 13 13 12 18 25 29 34 39 41 40 46 43 34 33 39 39 34 33 34 39 41 43 41 37 34 30 36 34 28 27
16 7 13 4 5 8 9 22 7 11 11 12 12 13 13 15 15 14 15 17 17 16 17 24 30 32 37 43 43 44 44 39 33 31 30 36 35 33 37 41 42 41 37 34 31 30 35 30 28
6 5 9 13 4 5 9 6 7 13 13 14 14 14 17 18 16 15 16 21 23 23 23 24 30 34 37 41 42 39 40 38 37 35 34 34 34 35 36 41 42 39 37 35 33 31 33 33 29
10 9 15 13 5 5 6 5 10 14 14 14 14 14 16 18 17 16 19 22 25 27 27 29 30 35 38 39 41 42 40 39 37 37 35 35 35 34 37 39 41 40 37 36 35 33 33 33 32
Wind_Direction
318 300 275 245 241 237 238 174 4 175 167 63 126 212 262 15 331 39 139 148 152 150 154 155 154 154 149 149 149 150 149 149 145 137 134 129 122 117 116 117 113 108 102 99 96 95 92 90 88
307 286 232 238 253 228 209 163 194 158 92 125 136 186 197 115 69 109 137 154 154 150 153 156 156 156 153 151 153 152 152 151 146 140 136 131 125 121 119 117 114 108 102 99 98 94 93 92 91
282 251 247 234 243 244 255 197 187 118 75 193 148 290 36 72 78 144 142 153 152 151 153 158 158 158 157 155 154 152 151 150 145 141 138 132 129 126 123 119 115 109 103 102 98 97 96 95 93
219 190 213 239 235 243 244 180 226 171 146 315 4 158 110 72 130 145 149 152 152 153 154 161 160 159 158 157 154 154 152 148 144 143 137 131 130 132 127 122 118 112 107 102 99 99 97 95 95
206 235 232 235 241 231 231 188 172 198 260 201 316 138 103 68 128 143 151 154 153 154 153 156 160 161 159 159 156 156 153 149 146 146 139 135 135 133 130 129 124 114 108 104 102 100 99 98 97
198 269 231 231 230 223 245 213 201 210 240 250 259 231 70 42 152 150 153 155 152 153 152 157 159 160 160 161 158 158 155 153 148 147 141 138 138 140 135 130 124 115 110 108 105 103 103 101 100
253 226 246 258 252 223 243 249 241 242 227 238 236 233 104 155 155 156 155 153 153 154 154 155 158 159 161 163 163 161 158 156 153 147 144 141 144 141 134 129 125 117 112 110 108 108 106 103 106
258 256 238 237 240 240 182 218 310 225 225 6 256 212 183 165 160 156 151 154 152 156 157 158 159 160 160 160 166 164 160 156 151 148 147 141 141 138 132 128 124 117 113 112 112 109 108 109 109
234 236 238 234 235 239 170 206 166 183 194 163 111 8 56 151 154 157 154 156 156 161 161 161 161 162 161 162 165 164 161 157 152 152 150 138 139 135 125 134 126 120 119 116 113 115 118 118 114
217 233 235 302 260 231 179 218 157 202 191 148 111 70 123 151 162 168 168 166 166 164 165 163 162 164 163 163 164 163 162 157 155 154 151 151 148 139 134 137 129 126 121 117 115 111 106 107 110
197 241 244 204 237 263 206 206 198 172 214 172 104 125 139 157 169 175 182 175 170 166 164 167 163 164 163 165 166 169 168 167 165 162 164 154 149 142 136 133 127 123 113 114 118 108 115 113 107
234 239 236 246 197 212 229 258 233 236 200 116 62 134 159 176 180 183 189 181 178 180 174 172 167 163 162 164 165 167 167 166 169 171 165 163 156 149 144 141 140 137 133 130 126 120 117 112 108
236 235 240 240 223 237 253 242 249 247 242 248 225 187 188 191 191 191 189 184 180 182 178 173 171 171 166 167 168 167 165 165 170 171 173 164 166 158 150 151 148 146 140 135 130 125 119 116 112
80 246 240 230 233 235 241 245 220 230 248 239 220 224 208 206 203 188 191 183 186 178 182 172 173 174 168 171 170 173 169 170 171 174 178 168 169 164 156 158 153 149 144 139 135 132 127 123 119
241 250 230 229 227 245 245 249 234 242 225 231 215 217 216 211 207 202 197 189 181 181 181 176 173 176 173 176 177 177 174 171 173 178 174 172 173 170 166 162 158 153 149 142 139 134 132 128 124
244 229 239 206 208 211 207 253 113 284 221 216 194 211 224 221 212 210 200 192 186 180 181 178 178 178 179 178 180 182 178 176 183 184 176 177 177 176 172 167 164 160 153 149 145 142 138 134 130
220 256 217 202 209 214 211 240 146 134 148 182 210 217 227 228 213 214 203 191 188 191 186 182 181 181 183 182 179 182 181 178 190 187 181 181 183 182 180 175 168 165 160 157 153 149 145 142 137
239 227 252 229 176 216 210 235 170 207 206 200 224 224 220 235 232 216 214 199 189 190 188 183 183 185 182 179 178 177 184 188 194 190 188 183 184 185 181 178 171 169 166 164 161 155 152 149 145
271 264 258 231 138 270 227 228 229 221 234 243 240 243 241 238 238 231 220 199 195 194 188 185 182 182 179 176 173 175 182 194 199 197 192 186 187 192 184 180 185 172 174 170 166 159 156 153 152
250 253 245 237 208 274 255 249 248 242 245 247 256 251 248 242 235 224 222 206 199 194 187 188 186 182 179 182 179 181 194 200 202 200 197 191 191 196 187 190 190 181 176 173 171 165 163 163 166
246 247 249 248 229 226 268 263 251 247 248 248 247 245 241 239 235 224 216 211 202 192 191 191 188 184 185 185 189 181 196 204 208 206 201 199 197 197 195 194 188 184 183 184 184 173 176 172 181
258 245 246 258 230 242 222 264 242 217 199 214 214 216 220 224 226 231 218 212 203 204 200 195 193 189 185 182 184 191 185 204 211 208 206 204 201 200 197 202 199 196 195 190 197 191 181 184 186
275 275 243 238 235 239 232 247 248 239 225 238 217 206 204 205 214 215 221 216 211 204 204 196 193 190 185 182 185 185 188 204 212 212 211 205 206 208 202 206 195 201 204 202 204 196 190 195 196
261 288 252 238 232 230 229 231 243 224 204 198 133 140 151 193 208 253 247 233 221 211 203 198 194 192 189 184 188 189 191 202 223 212 209 205 203 204 204 212 212 210 207 210 206 209 205 201 203
226 233 215 214 216 223 212 223 227 73 127 114 10 33 10 353 333 316 299 255 227 220 206 195 197 192 189 187 189 193 205 196 216 228 213 204 199 198 199 206 206 206 211 213 203 210 207 204 203
225 217 234 213 209 209 213 213 217 222 49 58 36 7 7 351 340 326 316 305 278 243 218 201 200 198 192 193 193 201 205 203 205 212 219 213 206 204 199 202 208 208 207 203 203 210 212 208 212
226 226 224 272 267 243 200 182 93 127 106 31 6 358 358 346 335 323 316 303 287 263 240 217 205 204 197 198 199 206 210 211 211 206 212 220 213 206 203 199 201 204 200 201 202 206 207 206 211
237 338 202 157 257 194 183 181 102 37 3 352 351 350 349 345 332 324 315 308 295 273 254 233 223 211 203 203 207 210 215 216 219 217 213 213 214 212 201 200 203 202 198 198 201 202 201 198 207
160 231 234 187 253 274 176 97 41 23 5 346 344 348 335 336 330 322 317 311 300 283 260 239 225 221 211 207 211 215 215 215 219 220 218 215 215 212 206 200 202 199 196 199 200 202 198 201 207
50 216 218 186 174 239 253 86 26 15 4 353 346 341 335 331 328 322 321 317 310 294 258 235 223 218 219 213 212 215 212 213 216 216 216 211 215 211 209 203 201 200 198 199 201 201 200 202 206
Height
794 794 792 788 794 788 781 779 768 774 773 769 769 770 772 771 779 793 794 797 801 808 815 822 824 828 832 834 836 838 840 843 846 849 851 854 856 857 859 860 862 863 864 865 866 867 867 867 867
794 793 790 781 793 791 784 770 776 767 768 767 769 771 775 779 782 791 796 800 804 810 816 823 825 829 833 836 838 841 843 845 848 851 854 857 859 860 861 863 865 867 868 869 870 870 871 871 871
793 792 783 782 783 787 781 778 765 767 770 766 771 769 773 783 789 791 794 800 806 812 818 823 826 831 835 838 840 843 846 848 850 853 856 859 862 863 864 866 868 869 872 873 873 874 875 875 875
791 788 786 790 786 776 775 771 768 774 772 769 769 776 780 788 789 793 797 801 807 813 819 823 827 832 836 840 842 846 849 851 853 856 860 862 864 866 867 869 871 872 874 876 876 877 878 879 879
790 783 786 789 781 773 771 769 777 779 774 773 773 774 780 791 792 794 799 803 807 815 820 825 829 834 837 842 845 848 851 854 856 859 862 865 867 869 870 872 873 875 877 878 880 880 882 883 883
786 780 788 786 778 770 772 767 775 780 776 774 776 777 786 795 794 796 800 805 810 816 821 826 831 835 839 844 847 850 853 856 859 862 865 868 870 871 873 875 876 879 880 881 883 884 886 887 888
784 783 780 774 775 776 776 769 777 776 777 775 769 778 791 797 797 800 801 807 812 817 821 827 833 838 842 846 849 853 856 859 862 865 868 870 872 875 876 878 880 882 883 884 887 888 889 891 892
783 781 783 779 776 777 773 775 775 775 775 774 772 777 782 793 798 803 806 808 813 817 822 827 833 838 844 848 851 855 858 861 864 868 871 873 876 879 880 882 884 885 887 888 890 891 893 894 896
788 786 781 776 775 771 773 778 775 775 774 775 777 778 782 792 798 804 807 810 814 818 822 827 832 838 844 849 854 857 861 863 867 870 873 876 879 882 884 885 887 888 890 891 893 894 896 897 899
784 781 773 767 766 773 776 773 777 778 777 780 780 784 786 794 798 802 804 807 813 818 822 827 833 838 843 848 854 859 863 866 869 872 875 877 881 883 885 887 889 891 893 895 895 898 900 902 903
781 781 766 777 779 778 774 778 776 778 784 774 782 787 793 796 800 803 806 810 814 819 823 828 833 837 843 847 852 857 862 865 869 872 875 877 881 883 886 888 892 894 897 898 900 901 903 905 905
790 780 781 779 783 782 782 780 780 779 774 778 785 785 792 795 798 802 805 807 813 817 822 827 832 837 842 847 851 855 859 863 867 872 874 877 881 884 886 890 893 896 898 900 902 903 906 907 909
789 779 786 783 787 785 785 785 783 782 779 780 782 784 788 791 795 800 804 809 813 817 823 827 831 836 840 845 851 855 858 862 866 870 873 877 880 883 886 890 893 895 898 900 903 905 907 909 911
785 784 783 785 785 785 788 780 786 780 777 779 780 781 782 786 790 797 803 807 811 816 821 825 831 836 839 845 849 854 857 861 866 869 871 875 880 882 886 889 893 896 898 901 903 906 908 910 912
788 792 782 782 782 784 783 781 776 773 774 775 776 778 777 781 785 790 797 802 806 813 820 824 828 833 838 843 848 853 856 860 864 868 870 874 878 882 885 889 892 896 899 901 904 907 909 912 914
789 788 781 765 775 778 783 766 773 772 770 773 773 776 776 778 781 786 793 800 805 810 816 822 827 831 837 841 846 851 855 859 863 867 869 872 876 881 885 888 891 895 898 901 904 907 910 912 915
780 773 771 768 777 772 776 762 770 775 773 773 775 776 777 777 779 783 788 795 800 806 811 817 824 828 834 840 844 849 853 858 862 865 868 871 874 879 883 887 890 894 897 901 904 907 909 913 915
766 769 768 768 775 777 770 764 768 772 775 775 774 773 776 777 778 781 784 792 797 802 808 813 817 824 830 838 843 847 851 857 860 863 866 869 872 876 881 885 888 893 896 899 903 906 909 912 915
773 778 771 763 773 780 766 764 762 766 769 770 771 772 772 774 775 779 782 788 794 799 804 809 814 819 825 831 837 844 848 854 858 861 863 866 870 873 878 882 884 890 894 898 902 905 908 912 915
784 780 775 772 776 785 773 767 761 760 763 765 768 768 770 770 771 774 778 782 789 794 798 804 809 814 819 826 833 842 846 852 856 859 860 863 867 869 873 878 882 887 890 895 900 902 907 910 913
781 779 776 775 769 778 776 769 765 759 760 760 760 761 764 765 767 769 774 777 784 790 794 798 804 807 813 819 827 837 845 849 854 855 858 860 863 866 869 873 878 883 887 891 895 898 903 906 910
780 772 774 777 776 776 764 758 735 737 751 761 759 760 760 761 763 766 767 772 777 785 790 794 799 804 809 815 822 829 827 840 846 850 852 856 858 862 865 869 874 878 882 886 890 895 900 903 906
784 775 774 776 769 770 764 775 750 742 754 752 752 753 754 755 758 761 765 766 771 778 784 788 794 799 804 809 817 822 826 833 841 846 848 851 853 857 860 865 869 873 877 882 886 892 896 900 903
792 790 777 772 767 768 758 762 751 741 749 750 752 755 759 760 762 765 766 766 767 772 778 784 789 793 798 804 812 818 824 830 836 838 840 843 847 850 854 859 863 867 872 876 880 885 891 896 899
792 789 778 784 777 761 748 756 752 742 750 757 761 761 762 763 764 767 765 765 767 769 772 778 784 788 792 797 804 810 815 815 825 832 833 835 839 843 846 851 856 860 865 870 876 879 885 890 895
782 780 772 769 751 746 743 749 745 743 755 759 766 769 767 768 768 768 768 768 769 768 769 775 779 784 787 792 797 802 805 806 803 818 826 828 831 834 838 841 847 852 859 865 870 873 879 885 891
790 785 772 784 753 737 729 742 752 760 769 771 772 772 772 773 773 771 770 769 768 769 767 769 773 778 782 786 791 796 799 803 804 805 813 821 825 828 832 836 840 846 852 858 863 867 873 880 886
795 800 784 807 783 752 742 740 776 790 786 780 774 774 775 777 775 773 771 768 767 765 766 765 767 770 776 779 783 788 792 796 801 806 805 811 817 823 824 828 834 839 846 851 857 862 866 873 878
801 801 779 776 797 752 736 774 803 798 795 794 784 782 780 779 779 774 772 768 764 762 761 760 760 764 767 772 776 781 785 790 795 798 802 806 812 816 819 821 826 832 838 844 849 854 858 865 871
784 780 766 776 785 780 745 791 801 800 797 803 802 797 786 784 779 776 773 767 760 754 749 750 752 754 758 762 768 771 777 783 788 791 796 800 804 808 811 814 818 825 830 835 841 846 851 856 862